Location: Unspecified
(0.0000°N, 0.0000°E)
Time: 14:22:09
(UTC+00:00)

Vanguard 2 Rocket - All Passes

Search period start: 29 January 2015 00:00
Search period end: 08 February 2015 00:00
Orbit: 554 x 3334 km, 32.9° (Epoch: 27 January)

Date Brightness Start Highest point End Pass type
(mag) Time Alt. Az. Time Alt. Az. Time Alt. Az.
29 Jan - 03:29:10 10° N 03:31:44 14° NNE 03:34:05 10° ENE visible
29 Jan - 05:41:10 10° WNW 05:45:04 51° SW 05:49:08 10° SE visible
29 Jan - 12:31:06 10° S 12:36:30 14° SSE 12:44:09 10° SE daylight
29 Jan - 14:41:44 10° SSW 14:55:48 42° SE 15:14:37 10° E daylight
29 Jan - 16:56:13 10° SW 17:15:07 88° NW 17:34:43 10° NE daylight
29 Jan - 19:16:11 10° W 19:34:49 40° NNW 19:49:31 10° NNE visible
29 Jan - 21:46:36 10° NW 21:54:57 14° NNW 22:00:56 10° N visible
30 Jan - 04:42:31 10° NW 04:46:57 67° NE 04:50:51 10° ESE visible
30 Jan - 06:59:42 10° SSW 07:00:18 10° SSW 07:00:45 10° SSW daylight
30 Jan - 13:43:30 10° SSW 13:54:46 30° SSE 14:10:56 10° E daylight
30 Jan - 15:56:30 10° SW 16:13:37 75° SE 16:34:02 10° ENE daylight
30 Jan - 18:13:57 10° WSW 18:33:17 53° NNW 18:50:30 10° NE visible
30 Jan - 20:40:01 10° WNW 20:53:36 21° NNW 21:03:31 10° NNE visible
31 Jan - 03:43:57 10° NW 03:48:39 33° NNE 03:52:19 10° E visible
31 Jan - 05:58:41 10° W 06:01:36 19° SSW 06:04:33 10° SSE daylight
31 Jan - 12:46:00 10° S 12:54:02 20° SSE 13:05:46 10° ESE daylight
31 Jan - 14:57:28 10° SW 15:12:22 58° SE 15:32:26 10° ENE daylight
31 Jan - 17:12:53 10° WSW 17:31:36 68° NW 17:50:51 10° NE daylight
31 Jan - 19:35:12 10° W 19:52:00 30° NNW 20:05:10 10° NNE visible
31 Jan - 22:08:54 10° NNW 22:13:08 11° NNW 22:16:17 10° N visible
01 Feb - 02:45:20 10° NNW 02:49:54 21° NNE 02:53:27 10° ENE night (unlit)
01 Feb - 04:59:09 10° WNW 05:03:21 41° SW 05:07:03 10° SE visible
01 Feb - 11:50:15 10° S 11:53:31 12° SSE 11:58:20 10° SE daylight
01 Feb - 13:59:02 10° SSW 14:11:30 42° SE 14:29:45 10° ENE daylight
01 Feb - 16:12:48 10° WSW 16:30:01 85° NW 16:50:32 10° NE daylight
01 Feb - 18:31:59 10° W 18:50:12 39° NNW 19:06:14 10° NNE visible
01 Feb - 21:01:14 10° NW 21:11:35 16° NNW 21:19:18 10° NNE visible
02 Feb - 01:46:29 10° NNW 01:50:42 15° NNE 01:54:08 10° NE night (unlit)
02 Feb - 03:59:53 10° NW 04:05:14 86° NE 04:09:13 10° ESE visible
02 Feb - 13:01:13 10° SSW 13:11:00 29° SE 13:25:52 10° E daylight
02 Feb - 15:13:27 10° SW 15:28:43 77° SE 15:49:26 10° ENE daylight
02 Feb - 17:30:11 10° WSW 17:48:21 51° NNW 18:06:42 10° NE daylight
02 Feb - 19:55:19 10° WNW 20:09:43 22° NNW 20:20:57 10° NNE visible
02 Feb - 22:29:14 10° NNW 22:31:36 10° N 22:33:31 10° N visible
03 Feb - 00:47:12 10° NNW 00:51:02 13° NNE 00:54:22 10° NE night (unlit)
03 Feb - 03:00:39 10° NW 03:06:52 44° NNE 03:11:04 10° ESE visible
03 Feb - 05:17:02 10° WSW 05:19:46 16° SW 05:22:12 10° S visible
03 Feb - 12:04:14 10° S 12:10:48 18° SSE 12:20:35 10° ESE daylight
03 Feb - 14:14:47 10° SW 14:27:52 59° SE 14:47:30 10° ENE daylight
03 Feb - 16:29:32 10° WSW 16:46:35 65° NNW 17:06:36 10° NE daylight
03 Feb - 18:51:01 10° W 19:07:39 29° NNW 19:21:58 10° NNE visible
03 Feb - 21:22:22 10° NW 21:30:01 13° N 21:35:59 10° NNE visible
03 Feb - 23:46:59 10° NNW 23:50:51 12° N 23:54:16 10° NNE night (unlit)
04 Feb - 02:01:15 10° NNW 02:08:01 29° NNE 02:12:34 10° E night (unlit)
04 Feb - 04:16:44 10° WNW 04:21:33 36° SW 04:25:16 10° SSE visible
04 Feb - 13:16:41 10° SSW 13:27:31 42° SE 13:44:36 10° ENE daylight
04 Feb - 15:29:49 10° WSW 15:45:07 81° NW 16:05:51 10° NE daylight
04 Feb - 17:48:17 10° W 18:05:32 38° NNW 18:22:27 10° NNE daylight
04 Feb - 20:16:12 10° NW 20:27:59 17° NNW 20:37:15 10° NNE visible
04 Feb - 22:45:10 10° NNW 22:50:03 12° N 22:54:15 10° NNE visible
05 Feb - 01:01:32 10° NNW 01:08:40 22° NNE 01:13:40 10° ENE night (unlit)
05 Feb - 03:16:48 10° WNW 03:23:24 79° SW 03:27:44 10° SE visible
05 Feb - 12:19:12 10° SSW 12:27:34 28° SE 12:40:41 10° E daylight
05 Feb - 14:30:49 10° SW 14:44:09 80° SE 15:04:26 10° ENE daylight
05 Feb - 16:46:54 10° W 17:03:31 48° NNW 17:22:26 10° NE daylight
05 Feb - 19:11:02 10° WNW 19:25:39 22° NNW 19:38:00 10° NNE visible
05 Feb - 21:41:34 10° NNW 21:48:38 13° N 21:54:26 10° NNE visible
06 Feb - 00:01:20 10° NNW 00:08:47 19° NNE 00:14:19 10° ENE night (unlit)
06 Feb - 02:16:53 10° NW 02:24:57 58° NNE 02:29:49 10° ESE night (unlit)
06 Feb - 04:34:53 10° WSW 04:37:49 15° SW 04:40:13 10° S visible
06 Feb - 11:22:43 10° S 11:27:52 16° SE 11:35:29 10° ESE daylight
06 Feb - 13:32:26 10° SW 13:43:45 60° SE 14:02:16 10° ENE daylight
06 Feb - 15:46:38 10° WSW 16:01:49 61° NNW 16:21:53 10° NE daylight
06 Feb - 18:07:19 10° WNW 18:23:14 29° NNW 18:38:18 10° NNE visible
06 Feb - 20:36:43 10° NW 20:46:36 15° N 20:54:39 10° NNE visible
06 Feb - 23:00:24 10° NNW 23:08:18 17° N 23:14:29 10° NE visible
07 Feb - 01:16:48 10° NW 01:25:57 39° NNE 01:31:31 10° E night (unlit)
07 Feb - 03:33:49 10° WNW 03:39:37 34° SW 03:43:38 10° SSE visible
07 Feb - 12:34:36 10° SSW 12:43:54 42° SE 12:59:21 10° ENE daylight
07 Feb - 14:47:14 10° WSW 15:00:36 77° NW 15:20:46 10° NE daylight
07 Feb - 17:05:05 10° W 17:20:56 36° NNW 17:38:12 10° NNE daylight
07 Feb - 19:31:36 10° NW 19:44:09 18° NNW 19:54:44 10° NNE visible
07 Feb - 21:58:29 10° NNW 22:07:10 16° N 22:14:11 10° NE visible
